sat.trackr.live / text

‹ back to catalog

STARLINK-4337

NORAD 53053 · 2022-077L

PAYLOAD ACTIVE UNKNOWN

§ Identity

Operator
Country
US
Launch date
2022-07-11
Launch site
AFWTR
Launch vehicle
Mass (kg)
RCS (m²)

Purposes: comms

External: N2YO · Heavens-Above · Gunter

§ Orbital elements

Epoch: 2026-09-19T21:53:28.280832Z

Period
93.91 min
Inclination
97.2850°
Eccentricity
0.0001536
Mean motion
15.33436145 rev/d
Perigee alt
464.5 km
Apogee alt
466.6 km
Semi-major
6,843.7 km
B*
4.6793e-5
RAAN
77.7872°
Arg perigee
90.6929°
Mean anomaly
269.4490°
Rev number
23,020

§ Raw data

STARLINK-43371 53053U 22077L   26262.91213288  .00001435  00000+0  46793-4 0  99912 53053  97.2850  77.7872 0001536  90.6929 269.4490 15.33436145230203

JSON: /api/v1/satellites/53053 · /tle

For live sub-satellite position, see the globe view (requires WebGL).

§ Visibility from observer

Set your observer location to see the next 7 days of passes ≥ 10°. The values pass through the URL so the page stays shareable.

No JS? Fill the form by hand. The geolocation button needs JavaScript.